Theta_e
290 289 288 288 288 287 286 286 286 286 286 289 289 289 289 288 289 289 289 289 289 289 290 290 291 291 291
289 288 288 288 287 286 285 285 285 285 286 287 288 287 287 287 287 287 288 287 287 288 289 289 290 290 291
288 288 287 287 286 285 285 285 285 285 285 285 284 285 285 285 286 286 286 285 286 287 288 289 289 290 291
287 287 286 286 285 284 285 284 284 284 284 284 284 283 283 283 283 283 283 285 286 287 288 287 288 288 289
287 286 286 285 284 284 284 284 284 283 283 283 282 282 282 282 282 283 284 285 286 287 287 287 287 287 288
286 286 285 284 284 284 283 283 284 282 282 282 282 282 282 282 282 283 284 285 286 287 288 286 286 286 287
285 285 284 284 283 284 283 282 282 282 281 282 282 282 282 281 281 282 285 285 284 284 284 284 285 285 285
285 285 284 284 283 283 282 281 281 281 280 281 281 281 281 281 281 281 284 283 282 283 283 283 283 284 284
285 284 283 282 283 281 281 280 280 280 280 280 281 280 280 280 280 281 282 281 281 281 281 282 282 283 283
283 282 281 281 281 280 280 280 279 279 280 279 279 280 280 279 280 279 280 279 280 280 280 281 281 281 282
282 281 281 280 280 280 280 280 279 279 279 279 279 279 278 279 279 279 279 279 279 279 279 280 280 281 281
281 281 280 280 280 280 279 279 279 279 279 278 278 278 278 277 278 278 278 278 279 279 279 279 279 280 280
281 281 280 280 280 279 279 278 278 278 278 278 278 277 277 277 277 277 278 278 278 279 279 279 279 279 279
281 281 280 280 279 279 278 278 278 278 278 278 277 276 276 277 277 277 278 278 278 278 278 278 279 279 279
281 280 280 279 279 278 278 277 277 277 276 277 277 277 277 276 275 277 277 278 278 278 278 278 279 279 279
280 280 279 278 277 277 277 276 276 276 276 276 276 275 276 277 277 277 277 277 278 278 278 278 278 279 279
280 279 278 278 277 276 276 275 275 275 275 276 275 275 276 277 277 277 277 277 277 277 278 278 278 278 278
Wind_Speed
10 9 7 3 4 6 9 10 11 11 11 12 8 9 12 17 15 16 16 15 16 17 18 19 20 21 23
9 7 5 4 5 7 10 11 11 12 11 7 7 11 17 17 16 16 15 16 18 17 18 19 21 21 20
7 6 4 4 8 9 11 11 14 15 5 5 16 16 16 15 14 14 16 18 16 17 18 18 18 19 20
7 5 2 4 8 9 11 11 15 8 7 16 19 17 15 11 16 18 16 15 17 16 13 14 17 19 20
6 3 1 3 5 7 10 16 14 5 11 17 19 16 13 15 19 16 18 16 15 14 11 16 20 22 22
4 3 0 3 6 7 10 12 8 4 21 27 16 17 12 16 21 18 14 13 10 12 18 22 25 22 22
5 2 1 5 8 7 9 10 13 18 14 18 16 16 18 25 23 14 8 9 17 19 21 22 22 23 25
5 3 4 7 8 9 11 12 16 12 7 10 11 16 23 26 17 9 8 19 20 21 21 24 24 23 23
3 3 6 7 4 8 9 11 13 13 11 9 15 24 20 18 12 8 15 28 24 21 25 24 22 21 22
5 7 8 8 7 9 8 8 10 8 4 13 16 16 10 8 10 25 20 24 22 25 24 20 16 20 22
8 9 10 10 9 9 10 10 10 12 15 15 13 17 11 21 18 24 21 23 26 24 21 16 22 21 25
8 9 8 7 10 12 12 12 13 17 19 17 13 17 19 21 21 18 26 25 20 22 18 24 24 24 21
8 8 11 14 15 13 13 10 13 16 17 14 14 17 16 19 21 23 27 22 22 15 20 21 23 24 25
10 12 14 14 10 10 12 12 15 17 20 17 14 14 16 18 20 25 23 14 21 23 21 24 23 23 24
12 12 11 11 12 13 14 14 15 18 20 21 19 19 21 22 18 20 21 21 23 24 24 25 25 25 25
13 14 14 13 15 16 15 15 16 17 18 20 19 18 16 15 17 20 22 24 25 26 25 24 27 24 23
14 14 15 18 15 16 17 15 16 16 18 20 17 14 10 10 20 14 18 28 29 27 24 23 26 30 27
Wind_Direction
163 180 200 234 277 304 311 318 336 333 325 317 317 311 317 322 317 313 315 314 314 312 308 306 307 306 306
161 178 208 251 298 310 324 332 335 338 327 331 325 320 320 316 312 312 309 310 311 305 304 304 303 302 299
127 178 215 259 316 325 333 340 340 340 334 336 330 319 318 315 317 314 307 304 300 302 304 303 303 303 296
126 160 188 291 333 337 337 332 337 351 335 329 332 327 327 319 320 316 309 306 303 298 301 314 313 307 301
120 139 198 354 331 335 322 330 337 352 332 327 323 324 321 322 327 324 311 304 298 286 293 313 314 305 299
140 104 96 315 324 328 332 341 339 348 337 322 324 318 313 321 325 320 317 314 311 310 299 313 309 305 300
108 114 11 327 321 319 327 323 305 311 323 306 319 316 320 324 327 317 317 343 328 318 315 312 307 302 299
73 47 350 326 314 319 319 316 315 318 316 287 314 313 319 322 315 298 278 327 325 320 319 317 310 302 300
29 321 310 311 310 314 335 338 330 321 332 314 319 320 315 304 307 285 300 313 320 319 319 316 311 308 302
318 330 337 339 325 322 317 309 318 318 320 328 317 330 321 291 304 305 310 314 314 316 316 315 313 314 305
340 345 346 345 330 320 299 279 285 279 297 315 301 310 291 296 299 305 309 313 314 316 317 316 317 312 308
340 350 337 322 329 314 313 297 283 281 296 303 283 297 295 295 297 309 311 310 308 306 308 312 315 316 309
328 314 325 326 322 324 326 307 308 306 312 309 292 293 287 286 291 304 306 311 305 299 308 307 308 311 309
311 320 316 317 314 316 318 323 319 316 327 323 308 296 293 293 296 291 298 293 301 305 306 305 305 303 298
302 306 307 311 308 323 327 320 310 308 311 321 324 315 307 302 286 286 295 297 304 305 308 300 300 297 296
307 311 311 314 315 320 316 306 300 302 307 317 316 315 313 308 291 280 291 293 299 303 300 295 296 299 297
309 306 309 314 309 302 303 295 296 301 303 309 304 309 308 303 303 294 290 294 296 296 296 294 295 295 299